Date String (YYYY-MM-DD hh:mm:ss) UTC,Instrument flags,Ambient pressure (hPa),Sample flow (lpm),Bypass flow (lpm),Sample temperature (°C),Ambient temperature (°C),ASC tube jacket temperature (°C),LED temperature (°C),Box temperature (°C),Sample RH (%),Span deviation,Mass concentration (μg/m³),Mass concentration (μg/m³),Mass concentration (μg/m³)
DateTimeUTC,F1_M11,P_M11,Q1_M11,Q2_M11,T1_M11,T2_M11,T3_M11,T4_M11,T5_M11,U1_M11,ZSPAN_M11,X0_M11,X2_M11,X1_M11
2022-11-29 20:00:00,,0818.4,4.99,0.00,21.2,19.5,00.0,30.3,22.8,11.1,0000.0,0004.77,0002.45,0001.94
2022-11-29 20:01:00,,0818.5,5.00,0.00,21.2,19.4,00.0,30.3,22.8,11.1,0000.0,0004.74,0002.44,0001.95
2022-11-29 20:02:00,,0818.5,5.01,0.00,21.2,19.5,00.0,30.3,22.8,11.2,0000.0,0004.80,0002.48,0001.97
2022-11-29 20:03:00,,0818.4,5.01,0.00,21.2,19.4,00.0,30.3,22.8,11.2,0000.0,0004.87,0002.49,0001.98
2022-11-29 20:04:00,,0818.5,5.00,0.00,21.1,19.3,00.0,30.2,22.7,11.3,0000.0,0004.96,0002.50,0001.98
2022-11-29 20:05:00,,0818.5,4.99,0.00,21.1,19.3,00.0,30.2,22.6,11.3,0000.0,0004.37,0002.48,0001.98
2022-11-29 20:06:00,,0818.5,4.99,0.00,21.0,19.2,00.0,30.2,22.6,11.4,0000.0,0004.19,0002.50,0001.98
2022-11-29 20:07:00,,0818.5,5.01,0.00,21.0,19.0,00.0,30.2,22.5,11.4,0000.0,0004.13,0002.49,0001.99
2022-11-29 20:08:00,,0818.5,5.01,0.00,21.0,19.0,00.0,30.1,22.5,11.4,0000.0,0004.05,0002.51,0001.98
2022-11-29 20:09:00,,0818.6,5.01,0.00,21.0,19.7,00.0,30.1,22.6,11.5,0000.0,0004.11,0002.52,0001.98
2022-11-29 20:10:00,,0818.7,5.00,0.00,21.1,21.1,00.0,30.0,23.0,11.5,0000.0,0004.18,0002.55,0001.99
2022-11-29 20:11:00,,0818.7,4.99,0.00,21.2,21.6,00.0,30.1,23.2,11.3,0000.0,0004.15,0002.55,0001.99
2022-11-29 20:12:00,,0818.8,4.98,0.00,21.3,21.2,00.0,30.1,23.2,11.2,0000.0,0004.06,0002.52,0001.98
2022-11-29 20:13:00,,0818.7,5.01,0.00,21.3,20.8,00.0,30.2,23.1,11.2,0000.0,0003.95,0002.49,0001.98
2022-11-29 20:14:00,,0818.7,5.00,0.00,21.3,20.5,00.0,30.2,23.1,11.1,0000.0,0003.89,0002.49,0001.98
2022-11-29 20:15:00,,0818.7,5.00,0.00,21.3,20.3,00.0,30.2,23.1,11.1,0000.0,0003.71,0002.47,0002.00
2022-11-29 20:16:00,,0818.7,5.00,0.00,21.3,20.1,00.0,30.2,23.0,11.1,0000.0,0003.74,0002.49,0002.00
2022-11-29 20:17:00,,0818.7,4.99,0.00,21.3,19.9,00.0,30.2,23.0,11.2,0000.0,0003.72,0002.47,0002.01
2022-11-29 20:18:00,,0818.7,5.00,0.00,21.3,19.7,00.0,30.2,23.0,11.3,0000.0,0004.12,0002.48,0002.03
2022-11-29 20:19:00,,0818.7,5.00,0.00,21.2,19.6,00.0,30.2,22.9,11.3,0000.0,0005.14,0002.51,0002.06
2022-11-29 20:20:00,,0818.7,5.00,0.00,21.2,19.5,00.0,30.2,22.9,11.4,0000.0,0005.06,0002.52,0002.07
2022-11-29 20:21:00,,0818.8,5.00,0.00,21.2,19.4,00.0,30.2,22.8,11.4,0000.0,0005.24,0002.58,0002.06
2022-11-29 20:22:00,,0818.8,5.00,0.00,21.1,19.4,00.0,30.2,22.7,11.4,0000.0,0005.31,0002.61,0002.07
2022-11-29 20:23:00,,0818.8,4.99,0.00,21.1,19.3,00.0,30.2,22.7,11.4,0000.0,0005.55,0002.66,0002.08
2022-11-29 20:24:00,,0818.9,5.00,0.00,21.1,19.3,00.0,30.2,22.6,11.4,0000.0,0005.70,0002.69,0002.09
2022-11-29 20:25:00,,0818.9,5.00,0.00,21.0,19.2,00.0,30.1,22.6,11.4,0000.0,0005.92,0002.74,0002.08
2022-11-29 20:26:00,,0818.8,5.01,0.00,21.0,19.3,00.0,30.1,22.6,11.4,0000.0,0006.10,0002.80,0002.08
2022-11-29 20:27:00,,0818.8,5.01,0.00,21.1,20.4,00.0,30.0,22.9,11.5,0000.0,0006.12,0002.81,0002.08
2022-11-29 20:28:00,,0818.8,5.00,0.00,21.2,21.6,00.0,30.0,23.2,11.4,0000.0,0006.18,0002.86,0002.10
2022-11-29 20:29:00,,0818.8,4.99,0.00,21.3,21.5,00.0,30.1,23.3,11.3,0000.0,0005.78,0002.86,0002.11
2022-11-29 20:30:00,,0818.8,4.99,0.00,21.3,21.1,00.0,30.2,23.2,11.3,0000.0,0004.84,0002.86,0002.10
2022-11-29 20:31:00,,0818.9,5.00,0.00,21.3,20.6,00.0,30.2,23.1,11.4,0000.0,0005.07,0002.90,0002.12
2022-11-29 20:32:00,,0818.9,5.00,0.00,21.3,20.2,00.0,30.2,23.0,11.4,0000.0,0004.95,0002.87,0002.15
2022-11-29 20:33:00,,0818.9,5.00,0.00,21.3,20.0,00.0,30.2,22.9,11.5,0000.0,0005.02,0002.88,0002.15
2022-11-29 20:34:00,,0819.0,5.00,0.00,21.2,19.8,00.0,30.2,22.9,11.5,0000.0,0004.84,0002.86,0002.15
2022-11-29 20:35:00,,0818.9,5.01,0.00,21.2,19.7,00.0,30.2,22.9,11.5,0000.0,0004.75,0002.85,0002.17
2022-11-29 20:36:00,,0818.9,5.00,0.00,21.2,19.8,00.0,30.2,22.9,11.6,0000.0,0004.52,0002.80,0002.17
2022-11-29 20:37:00,,0818.9,4.99,0.00,21.2,19.9,00.0,30.2,23.0,11.6,0000.0,0004.45,0002.78,0002.18
2022-11-29 20:38:00,,0818.9,5.01,0.00,21.3,20.0,00.0,30.2,23.0,11.6,0000.0,0004.47,0002.80,0002.19
2022-11-29 20:39:00,,0818.9,5.00,0.00,21.3,20.1,00.0,30.2,23.0,11.6,0000.0,0004.40,0002.77,0002.18
2022-11-29 20:40:00,,0818.8,4.99,0.00,21.3,20.0,00.0,30.2,23.0,11.5,0000.0,0004.30,0002.72,0002.16
2022-11-29 20:41:00,,0818.8,5.00,0.00,21.2,19.8,00.0,30.2,22.9,11.6,0000.0,0004.19,0002.71,0002.17
2022-11-29 20:42:00,,0818.8,5.01,0.00,21.2,19.7,00.0,30.2,22.9,11.7,0000.0,0003.95,0002.65,0002.16
2022-11-29 20:43:00,,0818.8,5.01,0.00,21.2,19.6,00.0,30.2,22.8,11.7,0000.0,0003.84,0002.64,0002.16
2022-11-29 20:44:00,,0818.9,5.00,0.00,21.1,19.5,00.0,30.2,22.8,11.7,0000.0,0003.75,0002.63,0002.16
2022-11-29 20:45:00,,0818.9,5.00,0.00,21.1,19.6,00.0,30.2,22.8,11.8,0000.0,0003.75,0002.63,0002.17
2022-11-29 20:46:00,,0818.9,5.00,0.00,21.1,19.7,00.0,30.2,22.9,11.8,0000.0,0003.78,0002.64,0002.16
2022-11-29 20:47:00,,0818.9,5.00,0.00,21.1,19.7,00.0,30.2,22.9,11.9,0000.0,0003.85,0002.67,0002.17
2022-11-29 20:48:00,,0818.9,4.99,0.00,21.1,19.7,00.0,30.2,22.8,11.8,0000.0,0003.94,0002.70,0002.16
2022-11-29 20:49:00,,0818.9,5.00,0.00,21.1,19.8,00.0,30.2,22.9,11.8,0000.0,0003.93,0002.67,0002.15
2022-11-29 20:50:00,,0818.9,4.99,0.00,21.2,19.9,00.0,30.2,22.9,11.7,0000.0,0003.87,0002.64,0002.16
2022-11-29 20:51:00,,0818.9,5.02,0.00,21.2,20.9,00.0,30.1,23.2,11.7,0000.0,0003.83,0002.63,0002.17
2022-11-29 20:52:00,,0818.9,4.99,0.00,21.4,21.9,00.0,30.1,23.4,11.6,0000.0,0003.92,0002.64,0002.17
2022-11-29 20:53:00,,0818.8,4.99,0.00,21.5,21.9,00.0,30.2,23.5,11.6,0000.0,0003.98,0002.65,0002.17
2022-11-29 20:54:00,,0818.8,4.99,0.00,21.5,21.5,00.0,30.2,23.5,11.4,0000.0,0004.07,0002.65,0002.16
2022-11-29 20:55:00,,0818.8,5.00,0.00,21.5,21.2,00.0,30.3,23.5,11.4,0000.0,0004.15,0002.65,0002.15
2022-11-29 20:56:00,,0818.8,5.00,0.00,21.6,21.0,00.0,30.3,23.4,11.4,0000.0,0004.32,0002.66,0002.15
2022-11-29 20:57:00,,0818.8,5.00,0.00,21.6,20.8,00.0,30.4,23.4,11.4,0000.0,0004.29,0002.66,0002.15
2022-11-29 20:58:00,,0818.8,5.00,0.00,21.5,20.5,00.0,30.4,23.3,11.5,0000.0,0004.26,0002.63,0002.14
2022-11-29 20:59:00,,0818.8,5.00,0.00,21.5,20.2,00.0,30.4,23.2,11.4,0000.0,0004.17,0002.61,0002.15
